International Skating Union - Official Site

Essent ISU World Cup Salt lake City
November 15-17, 2013

Draw | Lap Times | Index | World Cup

Referee: Susan  SANDVIG-SHOBE  (USA)
Starter: Garth  LINDER  (USA)
StartTime: EndTime: Air Temp: Ice Temp: Humidity:
15:46 16:56 18 ℃ -7.8 ℃ 28.7
Result Team Pursuit Men
Rankings as of Nov 16 2013 5:26PM
Rank: No.: Team: Nation: Time: Behind: Points:
Total 14
1 1 Netherlands (95) Jan Blokhuijsen (110) Koen Verweij (102) Sven Kramer (94) Jorrit Bergsma NED NED 3:35.600.5 - 17.41 - (17.4)
1.0 - 30.37 - (12.9)
1.5 - 43.50 - (13.1)
2.0 - 56.37 - (12.8)
2.5 - 1:09.29 - (12.9)
3.0 - 1:22.46 - (13.1)
3.5 - 1:35.48 - (13.0)
4.0 - 1:48.55 - (13.0)
4.5 - 2:01.73 - (13.1)
5.0 - 2:15.02 - (13.2)
5.5 - 2:28.40 - (13.3)
6.0 - 2:41.97 - (13.5)
6.5 - 2:55.30 - (13.3)
7.0 - 3:08.65 - (13.3)
7.5 - 3:22.20 - (13.5)
8.0 - 3:35.60 - (13.4)
100
2 2 USA (154) Brian Hansen (155) Jonathan Kuck (151) Shani Davis (158) Trevor Marsicano USA USA 3:37.220.5 - 17.92 - (17.9)
1.0 - 30.85 - (12.9)
1.5 - 43.76 - (12.9)
2.0 - 56.70 - (12.9)
2.5 - 1:09.89 - (13.1)
3.0 - 1:23.21 - (13.3)
3.5 - 1:36.26 - (13.0)
4.0 - 1:49.29 - (13.0)
4.5 - 2:02.51 - (13.2)
5.0 - 2:15.77 - (13.2)
5.5 - 2:29.25 - (13.4)
6.0 - 2:43.01 - (13.7)
6.5 - 2:56.73 - (13.7)
7.0 - 3:10.40 - (13.6)
7.5 - 3:23.67 - (13.2)
8.0 - 3:37.22 - (13.5)
1.62 80
3 3 Korea (90) Seung-Hoon Lee (83) Cheol-Min Kim (82) Hyong-Jun Joo (86) Byung-Wook Ko KOR KOR 3:37.510.5 - 17.68 - (17.6)
1.0 - 30.74 - (13.0)
1.5 - 43.75 - (13.0)
2.0 - 56.86 - (13.1)
2.5 - 1:10.17 - (13.3)
3.0 - 1:23.59 - (13.4)
3.5 - 1:37.11 - (13.5)
4.0 - 1:50.39 - (13.2)
4.5 - 2:03.68 - (13.2)
5.0 - 2:17.03 - (13.3)
5.5 - 2:30.48 - (13.4)
6.0 - 2:43.93 - (13.4)
6.5 - 2:57.52 - (13.5)
7.0 - 3:10.76 - (13.2)
7.5 - 3:24.06 - (13.3)
8.0 - 3:37.51 - (13.4)
1.91 70
4 6 Norway (115) Sverre Lunde Pedersen (111) Håvard Bøkko (113) Håvard Holmefjord Lorentzen (114) Simen Spieler Nilsen NOR NOR 3:37.930.5 - 17.62 - (17.6)
1.0 - 30.83 - (13.2)
1.5 - 43.97 - (13.1)
2.0 - 57.14 - (13.1)
2.5 - 1:10.15 - (13.0)
3.0 - 1:23.16 - (13.0)
3.5 - 1:36.19 - (13.0)
4.0 - 1:49.44 - (13.2)
4.5 - 2:02.76 - (13.3)
5.0 - 2:16.38 - (13.6)
5.5 - 2:30.04 - (13.6)
6.0 - 2:43.86 - (13.8)
6.5 - 2:57.33 - (13.4)
7.0 - 3:10.77 - (13.4)
7.5 - 3:24.21 - (13.4)
8.0 - 3:37.93 - (13.7)
2.33 60
5 9 France (41) Benjamin Macé (39) Alexis Contin (40) Ewen Fernandez FRA FRA 3:39.410.5 - 17.85 - (17.8)
1.0 - 31.04 - (13.1)
1.5 - 44.25 - (13.2)
2.0 - 57.46 - (13.2)
2.5 - 1:10.84 - (13.3)
3.0 - 1:24.30 - (13.4)
3.5 - 1:37.88 - (13.5)
4.0 - 1:51.33 - (13.4)
4.5 - 2:04.75 - (13.4)
5.0 - 2:18.11 - (13.3)
5.5 - 2:31.76 - (13.6)
6.0 - 2:45.44 - (13.6)
6.5 - 2:59.07 - (13.6)
7.0 - 3:12.61 - (13.5)
7.5 - 3:26.06 - (13.4)
8.0 - 3:39.41 - (13.3)
3.81 50
6 10 Germany (43) Patrick Beckert (48) Robert Lehmann (45) Moritz Geisreiter (42) Alexej Baumgärtner GER GER 3:40.500.5 - 17.87 - (17.8)
1.0 - 31.00 - (13.1)
1.5 - 44.09 - (13.0)
2.0 - 57.16 - (13.0)
2.5 - 1:10.41 - (13.2)
3.0 - 1:24.02 - (13.6)
3.5 - 1:37.53 - (13.5)
4.0 - 1:51.09 - (13.5)
4.5 - 2:04.76 - (13.6)
5.0 - 2:18.60 - (13.8)
5.5 - 2:32.25 - (13.6)
6.0 - 2:46.04 - (13.7)
6.5 - 2:59.64 - (13.5)
7.0 - 3:13.21 - (13.5)
7.5 - 3:26.86 - (13.6)
8.0 - 3:40.50 - (13.6)
4.90 45
7 4 Canada (21) Denny Morrison (20) Lucas Makowsky (15) Mathieu Giroux (9) Jordan Belchos CAN CAN 3:40.640.5 - 17.33 - (17.3)
1.0 - 29.98 - (12.6)
1.5 - 42.55 - (12.5)
2.0 - 55.37 - (12.8)
2.5 - 1:08.34 - (12.9)
3.0 - 1:21.54 - (13.2)
3.5 - 1:35.01 - (13.4)
4.0 - 1:48.76 - (13.7)
4.5 - 2:02.29 - (13.5)
5.0 - 2:15.91 - (13.6)
5.5 - 2:29.62 - (13.7)
6.0 - 2:43.47 - (13.8)
6.5 - 2:57.54 - (14.0)
7.0 - 3:11.72 - (14.1)
7.5 - 3:26.00 - (14.2)
8.0 - 3:40.64 - (14.6)
5.04 40
8 7 Russia (142) Ivan Skobrev (144) Denis Yuskov (137) Yevgeny Lalenkov (133) Sergey Gryaztsov RUS RUS 3:41.260.5 - 17.80 - (17.8)
1.0 - 30.98 - (13.1)
1.5 - 44.10 - (13.1)
2.0 - 57.10 - (13.0)
2.5 - 1:10.19 - (13.0)
3.0 - 1:23.46 - (13.2)
3.5 - 1:36.68 - (13.2)
4.0 - 1:49.82 - (13.1)
4.5 - 2:03.18 - (13.3)
5.0 - 2:16.51 - (13.3)
5.5 - 2:30.09 - (13.5)
6.0 - 2:43.71 - (13.6)
6.5 - 2:57.68 - (13.9)
7.0 - 3:12.06 - (14.3)
7.5 - 3:26.42 - (14.3)
8.0 - 3:41.26 - (14.8)
5.66 35
9 8 Italy (56) Andrea Giovannini (52) Matteo Anesi (58) Luca Stefani (54) Marco Cignini ITA ITA 3:42.140.5 - 17.18 - (17.1)
1.0 - 30.35 - (13.1)
1.5 - 43.42 - (13.0)
2.0 - 56.79 - (13.3)
2.5 - 1:10.29 - (13.5)
3.0 - 1:23.82 - (13.5)
3.5 - 1:37.21 - (13.3)
4.0 - 1:50.57 - (13.3)
4.5 - 2:04.12 - (13.5)
5.0 - 2:17.89 - (13.7)
5.5 - 2:31.78 - (13.8)
6.0 - 2:45.52 - (13.7)
6.5 - 2:59.48 - (13.9)
7.0 - 3:13.59 - (14.1)
7.5 - 3:27.73 - (14.1)
8.0 - 3:42.14 - (14.4)
6.54 30
10 5 Poland (123) Zbigniew Brodka (126) Konrad Niedzwiedzki (124) Roland Cieslak (128) Jan Szymanski POL POL 3:43.490.5 - 17.95 - (17.9)
1.0 - 31.32 - (13.3)
1.5 - 44.78 - (13.4)
2.0 - 58.20 - (13.4)
2.5 - 1:11.77 - (13.5)
3.0 - 1:25.10 - (13.3)
3.5 - 1:38.48 - (13.3)
4.0 - 1:51.86 - (13.3)
4.5 - 2:05.12 - (13.2)
5.0 - 2:18.50 - (13.3)
5.5 - 2:32.35 - (13.8)
6.0 - 2:46.44 - (14.0)
6.5 - 3:00.90 - (14.4)
7.0 - 3:15.08 - (14.1)
7.5 - 3:29.27 - (14.1)
8.0 - 3:43.49 - (14.2)
7.89 25
11 12 Belgium (5) Bart Swings (4) Ferre Spruyt (6) Maarten Swings BEL BEL 3:45.640.5 - 18.54 - (18.5)
1.0 - 32.38 - (13.8)
1.5 - 45.90 - (13.5)
2.0 - 59.44 - (13.5)
2.5 - 1:13.09 - (13.6)
3.0 - 1:26.70 - (13.6)
3.5 - 1:40.29 - (13.5)
4.0 - 1:54.00 - (13.7)
4.5 - 2:08.09 - (14.0)
5.0 - 2:22.04 - (13.9)
5.5 - 2:36.10 - (14.0)
6.0 - 2:50.28 - (14.1)
6.5 - 3:04.19 - (13.9)
7.0 - 3:18.02 - (13.8)
7.5 - 3:31.81 - (13.7)
8.0 - 3:45.62 - (13.8)
10.04 21
12 14 New Zealand (117) Kalon Dobbin (121) Daniel Nation (118) Shane Dobbin NZL NZL 3:49.820.5 - 18.57 - (18.5)
1.0 - 32.11 - (13.5)
1.5 - 45.61 - (13.5)
2.0 - 59.29 - (13.6)
2.5 - 1:13.12 - (13.8)
3.0 - 1:27.16 - (14.0)
3.5 - 1:41.33 - (14.1)
4.0 - 1:55.64 - (14.3)
4.5 - 2:09.56 - (13.9)
5.0 - 2:23.46 - (13.9)
5.5 - 2:37.35 - (13.8)
6.0 - 2:51.34 - (13.9)
6.5 - 3:05.75 - (14.4)
7.0 - 3:20.51 - (14.7)
7.5 - 3:35.23 - (14.7)
8.0 - 3:49.82 - (14.5)
14.22 18
13 15 Kazakhstan (81) Aleksandr Zhigin (77) Denis Kuzin (78) Fyodor Mezentsev (72) Dmitry Babenko KAZ KAZ 3:53.720.5 - 18.22 - (18.2)
1.0 - 31.65 - (13.4)
1.5 - 45.26 - (13.6)
2.0 - 58.86 - (13.6)
2.5 - 1:12.70 - (13.8)
3.0 - 1:26.33 - (13.6)
3.5 - 1:40.41 - (14.0)
4.0 - 1:54.57 - (14.1)
4.5 - 2:08.98 - (14.4)
5.0 - 2:23.44 - (14.4)
5.5 - 2:38.24 - (14.8)
6.0 - 2:52.81 - (14.5)
6.5 - 3:07.77 - (14.9)
7.0 - 3:22.88 - (15.1)
7.5 - 3:38.07 - (15.1)
8.0 - 3:53.72 - (15.6)
18.12 16
14 11 Japan (59) Hiroki Abe (65) Shota Nakamura (69) Shane Williamson (61) Seitaro Ichinohe JPN JPN DNF0.5 - 17.89 - (17.8)
1.0 - 31.12 - (13.2)
0